Location: Contre
(49.7477°N, 2.0963°E)
Time: 19:44:40
(UTC+00:00)

ATLAS 2AS CENTAUR R/B - Pass Details

Date: 03 February 2023
Orbit: 986 x 1226 km, 63.7° (Epoch: 23 March)

Event Time Altitude Azimuth Distance (km) Brightness Sun altitude
Rises 18:21:47 0° 316° (NW) 3,977 6.2 -15.1°
Reaches altitude 10° 18:24:35 10° 313° (NW) 2,978 5.6 -15.5°
Maximum altitude 18:31:26 57° 237° (WSW) 1,230 3.3 -16.6°
Drops below altitude 10° 18:37:52 10° 161° (SSE) 2,804 4.8 -17.7°
Sets 18:40:27 0° 157° (SSE) 3,728 5.4 -18.1°
